When you browse on this site, cookies collect data to enhance your experience and personalize the content and advertising you see.
Visit our Privacy Policy to learn more. By continuing to use the site, you agree to this use of cookies and data.
  • Em Portugal
  • Lista de países
  • Para 7 dias
  • Temperatura da água
  • Mapas de satélite
  • Mapa do tempo
  • Widgets de tempo
  • user-avatar
    Iniciar Sessão

    Previsão horária em Corcha

    Hoje, 26 Abril, Sexta-feira

    Tempo Temperatura Precipitação Vento Pressão Humidade
    00:00 +10°C° 0 mm 0 m/s 670 mmHg 87%
    01:00 +10°C° 0 mm 0 m/s 670 mmHg 86%
    02:00 +10°C° 0 mm 0 m/s 669 mmHg 85%
    03:00 +10°C° 0 mm 0 m/s 669 mmHg 85%
    04:00 +10°C° 0 mm 0 m/s 669 mmHg 84%
    05:00 +11°C° 0 mm 0 m/s 669 mmHg 78%
    06:00 +13°C° 0 mm 0 m/s 670 mmHg 72%
    07:00 +15°C° 0 mm 0 m/s 670 mmHg 65%
    08:00 +17°C° 0 mm 0 m/s 671 mmHg 56%
    09:00 +19°C° 0 mm 0 m/s 671 mmHg 48%
    10:00 +21°C° 0 mm 0 m/s 672 mmHg 39%
    11:00 +24°C° 0 mm 1 m/s 671 mmHg 37%
    12:00 +24°C° 0 mm 1 m/s 671 mmHg 35%
    13:00 +24°C° 0 mm 2 m/s 671 mmHg 33%
    14:00 +24°C° 0 mm 2 m/s 671 mmHg 36%
    15:00 +23°C° 0 mm 2 m/s 670 mmHg 40%
    16:00 +23°C° 0 mm 2 m/s 670 mmHg 43%
    17:00 +20°C° 0 mm 2 m/s 669 mmHg 54%
    18:00 +19°C° 0 mm 1 m/s 669 mmHg 66%
    19:00 +15°C° 0 mm 1 m/s 668 mmHg 77%
    20:00 +15°C° 0 mm 1 m/s 668 mmHg 80%
    21:00 +14°C° 0 mm 1 m/s 668 mmHg 84%
    22:00 +13°C° 0 mm 0 m/s 668 mmHg 87%
    23:00 +13°C° 0.1 mm 1 m/s 668 mmHg 88%

    Amanhã, 27 Abril, Sábado

    Tempo Temperatura Precipitação Vento Pressão Humidade
    00:00 +13°C° 0.1 mm 1 m/s 668 mmHg 89%
    01:00 +13°C° 0.1 mm 1 m/s 667 mmHg 89%
    02:00 +12°C° 0 mm 1 m/s 667 mmHg 87%
    03:00 +12°C° 0 mm 1 m/s 666 mmHg 85%
    04:00 +12°C° 0 mm 1 m/s 666 mmHg 83%
    05:00 +13°C° 0 mm 1 m/s 666 mmHg 76%
    06:00 +14°C° 0 mm 1 m/s 667 mmHg 70%
    07:00 +15°C° 0 mm 1 m/s 667 mmHg 63%
    08:00 +16°C° 0 mm 1 m/s 667 mmHg 57%
    09:00 +17°C° 0 mm 2 m/s 667 mmHg 51%
    10:00 +19°C° 0 mm 2 m/s 668 mmHg 45%
    11:00 +19°C° 0.1 mm 3 m/s 667 mmHg 46%
    12:00 +19°C° 0.1 mm 3 m/s 667 mmHg 47%
    13:00 +19°C° 0.1 mm 3 m/s 667 mmHg 48%
    14:00 +18°C° 0.7 mm 3 m/s 666 mmHg 52%
    15:00 +17°C° 0.7 mm 4 m/s 666 mmHg 57%
    16:00 +15°C° 0.7 mm 4 m/s 665 mmHg 62%
    17:00 +13°C° 0.3 mm 3 m/s 665 mmHg 69%
    18:00 +13°C° 0.3 mm 2 m/s 665 mmHg 76%
    19:00 +10°C° 0.3 mm 2 m/s 664 mmHg 83%
    20:00 +9°C° 0 mm 2 m/s 665 mmHg 82%
    21:00 +8°C° 0 mm 2 m/s 665 mmHg 80%
    22:00 +8°C° 0 mm 1 m/s 665 mmHg 78%
    23:00 +8°C° 0 mm 1 m/s 664 mmHg 76%

    Depois de amanhã, 28 Abril, Domingo

    Tempo Temperatura Precipitação Vento Pressão Humidade
    00:00 +7°C° 0 mm 1 m/s 664 mmHg 74%
    01:00 +7°C° 0 mm 1 m/s 664 mmHg 71%
    02:00 +6°C° 0 mm 1 m/s 664 mmHg 74%
    03:00 +6°C° 0 mm 1 m/s 664 mmHg 76%
    04:00 +5°C° 0 mm 1 m/s 664 mmHg 79%
    05:00 +6°C° 0 mm 2 m/s 664 mmHg 75%
    06:00 +7°C° 0 mm 2 m/s 665 mmHg 71%
    07:00 +8°C° 0 mm 2 m/s 665 mmHg 67%
    08:00 +10°C° 0 mm 2 m/s 665 mmHg 59%
    09:00 +12°C° 0 mm 2 m/s 666 mmHg 52%
    10:00 +12°C° 0 mm 3 m/s 666 mmHg 44%
    11:00 +13°C° 0 mm 3 m/s 666 mmHg 43%
    12:00 +14°C° 0 mm 3 m/s 666 mmHg 42%
    13:00 +14°C° 0 mm 3 m/s 666 mmHg 41%
    14:00 +14°C° 0 mm 3 m/s 666 mmHg 45%
    15:00 +14°C° 0 mm 3 m/s 665 mmHg 49%
    16:00 +13°C° 0 mm 3 m/s 665 mmHg 52%
    17:00 +11°C° 0 mm 3 m/s 665 mmHg 64%
    18:00 +9°C° 0 mm 2 m/s 664 mmHg 75%
    19:00 +7°C° 0 mm 2 m/s 664 mmHg 86%
    20:00 +8°C° 0 mm 1 m/s 664 mmHg 88%
    21:00 +7°C° 0 mm 1 m/s 664 mmHg 89%
    22:00 +6°C° 0 mm 0 m/s 664 mmHg 90%
    23:00 +6°C° 0 mm 0 m/s 664 mmHg 85%

    29 Abril, Segunda-feira

    Tempo Temperatura Precipitação Vento Pressão Humidade
    00:00 +5°C° 0 mm 0 m/s 664 mmHg 80%
    01:00 +5°C° 0 mm 0 m/s 664 mmHg 74%
    02:00 +4°C° 0 mm 0 m/s 663 mmHg 69%
    03:00 +4°C° 0 mm 0 m/s 663 mmHg 64%
    04:00 +4°C° 0 mm 0 m/s 663 mmHg 59%
    05:00 +6°C° 0 mm 1 m/s 664 mmHg 54%
    06:00 +8°C° 0 mm 1 m/s 664 mmHg 49%
    07:00 +10°C° 0 mm 1 m/s 665 mmHg 45%
    08:00 +11°C° 0 mm 1 m/s 665 mmHg 42%
    09:00 +13°C° 0 mm 2 m/s 665 mmHg 40%
    10:00 +14°C° 0 mm 2 m/s 666 mmHg 37%
    11:00 +15°C° 0 mm 2 m/s 666 mmHg 39%
    12:00 +14°C° 0 mm 3 m/s 666 mmHg 40%
    13:00 +16°C° 0 mm 3 m/s 666 mmHg 41%
    14:00 +14°C° 0 mm 3 m/s 665 mmHg 46%
    15:00 +14°C° 0 mm 3 m/s 665 mmHg 51%
    16:00 +13°C° 0 mm 3 m/s 664 mmHg 56%
    17:00 +12°C° 0.1 mm 3 m/s 664 mmHg 65%
    18:00 +10°C° 0.1 mm 2 m/s 664 mmHg 75%
    19:00 +8°C° 0.1 mm 2 m/s 663 mmHg 85%
    20:00 +9°C° 0.1 mm 1 m/s 664 mmHg 89%
    21:00 +8°C° 0.1 mm 1 m/s 664 mmHg 92%
    22:00 +8°C° 0.1 mm 1 m/s 664 mmHg 95%
    23:00 +7°C° 0 mm 1 m/s 664 mmHg 96%

    30 Abril, Terça-feira

    Tempo Temperatura Precipitação Vento Pressão Humidade
    00:00 +7°C° 0 mm 1 m/s 663 mmHg 97%
    01:00 +6°C° 0 mm 1 m/s 663 mmHg 97%
    02:00 +6°C° 0 mm 1 m/s 663 mmHg 97%
    03:00 +6°C° 0 mm 1 m/s 663 mmHg 96%
    04:00 +5°C° 0 mm 1 m/s 662 mmHg 95%
    05:00 +7°C° 0 mm 1 m/s 663 mmHg 89%
    06:00 +7°C° 0 mm 2 m/s 663 mmHg 83%
    07:00 +8°C° 0 mm 2 m/s 663 mmHg 76%
    08:00 +10°C° 0 mm 2 m/s 663 mmHg 71%
    09:00 +12°C° 0 mm 2 m/s 664 mmHg 65%
    10:00 +12°C° 0 mm 3 m/s 664 mmHg 59%
    11:00 +12°C° 0.3 mm 3 m/s 664 mmHg 63%
    12:00 +11°C° 0.3 mm 3 m/s 663 mmHg 68%
    13:00 +11°C° 0.3 mm 3 m/s 663 mmHg 73%
    14:00 +11°C° 0.4 mm 3 m/s 663 mmHg 75%
    15:00 +10°C° 0.4 mm 3 m/s 663 mmHg 77%
    16:00 +10°C° 0.4 mm 3 m/s 662 mmHg 80%
    17:00 +9°C° 0.1 mm 3 m/s 662 mmHg 84%
    18:00 +7°C° 0.1 mm 2 m/s 662 mmHg 88%
    19:00 +6°C° 0.1 mm 2 m/s 662 mmHg 92%
    20:00 +6°C° 0 mm 1 m/s 662 mmHg 93%
    21:00 +5°C° 0 mm 1 m/s 662 mmHg 94%
    22:00 +4°C° 0 mm 1 m/s 662 mmHg 95%
    23:00 +4°C° 0 mm 1 m/s 662 mmHg 93%

    1 Maio, Quarta-feira

    Tempo Temperatura Precipitação Vento Pressão Humidade
    00:00 +4°C° 0 mm 1 m/s 662 mmHg 91%
    01:00 +3°C° 0 mm 1 m/s 661 mmHg 88%
    02:00 +3°C° 0 mm 1 m/s 661 mmHg 85%
    03:00 +3°C° 0 mm 1 m/s 661 mmHg 82%
    04:00 +3°C° 0 mm 1 m/s 661 mmHg 78%
    05:00 +4°C° 0 mm 1 m/s 662 mmHg 74%
    06:00 +6°C° 0 mm 1 m/s 662 mmHg 70%
    07:00 +8°C° 0 mm 1 m/s 662 mmHg 65%
    08:00 +8°C° 0 mm 2 m/s 663 mmHg 63%
    09:00 +10°C° 0 mm 2 m/s 663 mmHg 61%
    10:00 +12°C° 0 mm 2 m/s 663 mmHg 59%
    11:00 +12°C° 0.4 mm 2 m/s 663 mmHg 63%
    12:00 +10°C° 0.4 mm 2 m/s 663 mmHg 68%
    13:00 +10°C° 0.4 mm 2 m/s 662 mmHg 72%
    14:00 +9°C° 0.5 mm 2 m/s 662 mmHg 74%
    15:00 +9°C° 0.5 mm 2 m/s 662 mmHg 76%
    16:00 +9°C° 0.5 mm 2 m/s 662 mmHg 77%
    17:00 +8°C° 0.1 mm 2 m/s 662 mmHg 83%
    18:00 +7°C° 0.1 mm 2 m/s 662 mmHg 88%
    19:00 +5°C° 0.1 mm 2 m/s 661 mmHg 94%
    20:00 +6°C° 0 mm 1 m/s 661 mmHg 95%
    21:00 +5°C° 0 mm 1 m/s 661 mmHg 96%
    22:00 +5°C° 0 mm 1 m/s 662 mmHg 96%
    23:00 +4°C° 0 mm 1 m/s 661 mmHg 96%
    Mostrar mais